SKW4082 KJAC-KSLC

Flight info

Callsign SKW4082
Flight time 0h 42m
Altitude 30000
Route DCT KICNE DCT LHO CARTR1
Aircraft E75L/M-SDE3GILORVW/S

Departure

Time 2026-05-08 01:45
Airport Jackson Hole Airport (KJAC)

Arrival

Time 2026-05-08 02:27
Airport Salt Lake City International Airport (KSLC)
Time Latitude Longitude Altitude Speed Heading
2026-05-08 01:42 43.60077 -110.73937 6418 ft 14 kts 200°
2026-05-08 01:43 43.59985 -110.73983 6417 ft 14 kts 200°
2026-05-08 01:43 43.59914 -110.74022 6420 ft 8 kts 214°
2026-05-08 01:43 43.59908 -110.74030 6419 ft 0 kts 229°
2026-05-08 01:43 43.59907 -110.74032 6419 ft 1 kts 231°
2026-05-08 01:44 43.59904 -110.74068 6420 ft 7 kts 283°
2026-05-08 01:44 43.59934 -110.74150 6419 ft 11 kts 332°
2026-05-08 01:44 43.60016 -110.74125 6417 ft 20 kts 19°
2026-05-08 01:44 43.60374 -110.73951 6414 ft 90 kts 19°
2026-05-08 01:45 43.61168 -110.73570 6429 ft 150 kts 16°
2026-05-08 01:45 43.62260 -110.73105 6871 ft 174 kts 14°
2026-05-08 01:45 43.63439 -110.72597 7708 ft 177 kts 14°
2026-05-08 01:45 43.64649 -110.72142 8231 ft 187 kts 15°
2026-05-08 01:46 43.65923 -110.71533 8689 ft 199 kts 24°
2026-05-08 01:46 43.67157 -110.70496 9081 ft 216 kts 38°
2026-05-08 01:46 43.68224 -110.68947 9541 ft 231 kts 52°
2026-05-08 01:46 43.68971 -110.66865 9892 ft 246 kts 59°
2026-05-08 01:47 43.70041 -110.65046 10284 ft 247 kts 31°
2026-05-08 01:47 43.71545 -110.63891 10696 ft 249 kts 21°
2026-05-08 01:47 43.73135 -110.62826 11086 ft 259 kts 21°
2026-05-08 01:48 43.76622 -110.60522 11680 ft 299 kts 21°
2026-05-08 01:48 43.78565 -110.59255 12016 ft 318 kts 21°
2026-05-08 01:48 43.80621 -110.57923 12424 ft 331 kts 21°
2026-05-08 01:48 43.82705 -110.56573 13066 ft 336 kts 21°
2026-05-08 01:49 43.84725 -110.54885 13769 ft 346 kts 39°
2026-05-08 01:49 43.86093 -110.52098 14427 ft 360 kts 65°
2026-05-08 01:49 43.86463 -110.48622 15090 ft 372 kts 91°
2026-05-08 01:49 43.85985 -110.45073 15766 ft 379 kts 105°
2026-05-08 01:50 43.85098 -110.41618 16401 ft 383 kts 111°
2026-05-08 01:50 43.83768 -110.38407 16959 ft 389 kts 131°
2026-05-08 01:50 43.81651 -110.36104 17614 ft 388 kts 155°
2026-05-08 01:50 43.79095 -110.35041 18289 ft 383 kts 179°
2026-05-08 01:51 43.76482 -110.35365 18845 ft 376 kts 201°
2026-05-08 01:51 43.74180 -110.36972 19396 ft 370 kts 221°
2026-05-08 01:51 43.72169 -110.39205 19980 ft 374 kts 226°
2026-05-08 01:51 43.70141 -110.41498 20565 ft 381 kts 225°
2026-05-08 01:52 43.68051 -110.43796 21088 ft 387 kts 225°
2026-05-08 01:52 43.65914 -110.46105 21600 ft 393 kts 224°
2026-05-08 01:52 43.63743 -110.48440 22131 ft 399 kts 225°
2026-05-08 01:52 43.61548 -110.50823 22654 ft 403 kts 225°
2026-05-08 01:53 43.59349 -110.53260 23184 ft 408 kts 226°
2026-05-08 01:53 43.57130 -110.55729 23695 ft 412 kts 226°
2026-05-08 01:53 43.54944 -110.58226 24159 ft 415 kts 227°
2026-05-08 01:53 43.52714 -110.60782 24650 ft 419 kts 227°
2026-05-08 01:54 43.50457 -110.63348 25152 ft 422 kts 227°
2026-05-08 01:54 43.48197 -110.65960 25664 ft 425 kts 229°
2026-05-08 01:54 43.45948 -110.68627 26096 ft 429 kts 229°
2026-05-08 01:54 43.43679 -110.71321 26545 ft 432 kts 229°
2026-05-08 01:55 43.41405 -110.74044 26956 ft 435 kts 229°
2026-05-08 01:55 43.39128 -110.76797 27387 ft 436 kts 230°
2026-05-08 01:55 43.36867 -110.79579 27992 ft 434 kts 231°
2026-05-08 01:55 43.34628 -110.82358 28554 ft 433 kts 231°
2026-05-08 01:56 43.32403 -110.85121 29143 ft 429 kts 231°
2026-05-08 01:56 43.30194 -110.87905 29524 ft 431 kts 232°
2026-05-08 01:56 43.28000 -110.90702 30003 ft 430 kts 232°
2026-05-08 01:56 43.25800 -110.93557 30044 ft 442 kts 233°
2026-05-08 01:57 43.21147 -110.99277 30081 ft 468 kts 221°
2026-05-08 01:57 43.15369 -111.03649 30012 ft 478 kts 215°
2026-05-08 01:58 43.09488 -111.07920 29978 ft 479 kts 215°
2026-05-08 01:58 43.03603 -111.12224 29975 ft 479 kts 215°
2026-05-08 01:59 42.97729 -111.16516 29986 ft 479 kts 215°
2026-05-08 01:59 42.91857 -111.20802 29974 ft 479 kts 215°
2026-05-08 02:00 42.85979 -111.25088 29991 ft 480 kts 215°
2026-05-08 02:00 42.80094 -111.29370 30001 ft 479 kts 215°
2026-05-08 02:01 42.74253 -111.33612 29998 ft 479 kts 215°
2026-05-08 02:01 42.68371 -111.37875 29983 ft 479 kts 214°
2026-05-08 02:02 42.62487 -111.42129 29964 ft 479 kts 214°
2026-05-08 02:02 42.56595 -111.46382 29957 ft 479 kts 214°
2026-05-08 02:03 42.50707 -111.50620 29960 ft 479 kts 214°
2026-05-08 02:03 42.44807 -111.54858 29938 ft 479 kts 214°
2026-05-08 02:04 42.38917 -111.59083 29952 ft 479 kts 214°
2026-05-08 02:04 42.33027 -111.63296 29941 ft 479 kts 214°
2026-05-08 02:05 42.27138 -111.67501 29953 ft 479 kts 214°
2026-05-08 02:05 42.21248 -111.71698 29949 ft 479 kts 214°
2026-05-08 02:06 42.15353 -111.75889 29938 ft 479 kts 214°
2026-05-08 02:06 42.09499 -111.80052 29936 ft 479 kts 214°
2026-05-08 02:07 42.03592 -111.84233 29958 ft 480 kts 214°
2026-05-08 02:07 41.97686 -111.88402 29974 ft 479 kts 214°
2026-05-08 02:08 41.91781 -111.92566 29987 ft 480 kts 214°
2026-05-08 02:08 41.85909 -111.96685 29525 ft 465 kts 214°
2026-05-08 02:09 41.83075 -111.98668 29019 ft 459 kts 214°
2026-05-08 02:09 41.80223 -112.00584 28401 ft 458 kts 208°
2026-05-08 02:09 41.77121 -112.01685 27753 ft 466 kts 192°
2026-05-08 02:09 41.73894 -112.02140 27123 ft 466 kts 189°
2026-05-08 02:10 41.70712 -112.02547 26492 ft 464 kts 189°
2026-05-08 02:10 41.67505 -112.02989 25851 ft 463 kts 189°
2026-05-08 02:10 41.64316 -112.03448 25281 ft 459 kts 189°
2026-05-08 02:10 41.61139 -112.03907 24638 ft 458 kts 189°
2026-05-08 02:11 41.57989 -112.04374 24051 ft 452 kts 189°
2026-05-08 02:11 41.54886 -112.04841 23428 ft 447 kts 189°
2026-05-08 02:11 41.51843 -112.05462 22857 ft 438 kts 192°
2026-05-08 02:11 41.48846 -112.06093 22276 ft 434 kts 192°
2026-05-08 02:12 41.45878 -112.06712 21644 ft 429 kts 192°
2026-05-08 02:12 41.42931 -112.07319 21095 ft 427 kts 192°
2026-05-08 02:12 41.40008 -112.07922 20535 ft 423 kts 192°
2026-05-08 02:12 41.37117 -112.08513 19990 ft 418 kts 192°
2026-05-08 02:13 41.34257 -112.09099 19450 ft 414 kts 193°
2026-05-08 02:13 41.31422 -112.09676 18905 ft 410 kts 193°
2026-05-08 02:13 41.28619 -112.10247 18375 ft 406 kts 193°
2026-05-08 02:13 41.25845 -112.10811 17821 ft 400 kts 193°
2026-05-08 02:14 41.23116 -112.11363 17323 ft 394 kts 194°
2026-05-08 02:14 41.20425 -112.11922 16799 ft 389 kts 194°
2026-05-08 02:14 41.17768 -112.12503 16285 ft 384 kts 194°
2026-05-08 02:14 41.15144 -112.13072 15761 ft 380 kts 194°
2026-05-08 02:15 41.12585 -112.13624 15276 ft 375 kts 194°
2026-05-08 02:15 41.10017 -112.14180 14783 ft 370 kts 194°
2026-05-08 02:15 41.07471 -112.14574 14286 ft 369 kts 184°
2026-05-08 02:15 41.04936 -112.14214 13804 ft 364 kts 175°
2026-05-08 02:16 41.02465 -112.13640 13293 ft 355 kts 175°
2026-05-08 02:16 41.00068 -112.13102 12821 ft 346 kts 175°
2026-05-08 02:16 40.97712 -112.12586 12364 ft 339 kts 174°
2026-05-08 02:16 40.95405 -112.12084 11896 ft 333 kts 175°
2026-05-08 02:17 40.93135 -112.11598 11467 ft 328 kts 174°
2026-05-08 02:17 40.90907 -112.11122 11143 ft 319 kts 174°
2026-05-08 02:17 40.88751 -112.10701 10962 ft 307 kts 178°
2026-05-08 02:17 40.86657 -112.10484 10948 ft 300 kts 179°
2026-05-08 02:18 40.84566 -112.10264 10966 ft 303 kts 179°
2026-05-08 02:18 40.82449 -112.10030 10989 ft 307 kts 179°
2026-05-08 02:18 40.80312 -112.09788 10910 ft 310 kts 179°
2026-05-08 02:18 40.78154 -112.09540 10658 ft 311 kts 179°
2026-05-08 02:19 40.76002 -112.09289 10410 ft 309 kts 179°
2026-05-08 02:19 40.73863 -112.09027 10179 ft 307 kts 176°
2026-05-08 02:19 40.71754 -112.08642 9959 ft 307 kts 175°
2026-05-08 02:19 40.69666 -112.08232 9722 ft 306 kts 175°
2026-05-08 02:20 40.67575 -112.07833 9472 ft 300 kts 175°
2026-05-08 02:20 40.65534 -112.07451 9215 ft 292 kts 175°
2026-05-08 02:20 40.63564 -112.07091 8958 ft 278 kts 175°
2026-05-08 02:20 40.61717 -112.06748 8973 ft 261 kts 175°
2026-05-08 02:21 40.59939 -112.06411 8959 ft 254 kts 175°
2026-05-08 02:21 40.58207 -112.06076 9033 ft 252 kts 175°
2026-05-08 02:21 40.56485 -112.05526 8995 ft 259 kts 155°
2026-05-08 02:21 40.55107 -112.03985 8806 ft 266 kts 124°
2026-05-08 02:22 40.54499 -112.01720 8596 ft 263 kts 94°
2026-05-08 02:22 40.54682 -111.99384 8395 ft 254 kts 64°
2026-05-08 02:22 40.55703 -111.97585 8210 ft 243 kts 33°
2026-05-08 02:22 40.57241 -111.96944 8029 ft 231 kts 351°
2026-05-08 02:23 40.58769 -111.97381 7844 ft 220 kts 344°
2026-05-08 02:23 40.60285 -111.97564 7524 ft 217 kts 356°
2026-05-08 02:23 40.61746 -111.97665 7280 ft 209 kts 351°
2026-05-08 02:23 40.63163 -111.97901 7074 ft 201 kts 353°
2026-05-08 02:24 40.64524 -111.98036 6851 ft 190 kts 355°
2026-05-08 02:24 40.65793 -111.98175 6645 ft 177 kts 353°
2026-05-08 02:24 40.67014 -111.98329 6411 ft 176 kts 354°
2026-05-08 02:24 40.68218 -111.98468 6172 ft 174 kts 353°
2026-05-08 02:25 40.69432 -111.98608 5910 ft 175 kts 354°
2026-05-08 02:25 40.70653 -111.98748 5658 ft 177 kts 354°
2026-05-08 02:25 40.71877 -111.98891 5400 ft 177 kts 354°
2026-05-08 02:25 40.73106 -111.99034 5152 ft 177 kts 355°
2026-05-08 02:26 40.74333 -111.99177 4902 ft 178 kts 356°
2026-05-08 02:26 40.75581 -111.99326 4658 ft 181 kts 356°
2026-05-08 02:26 40.76810 -111.99436 4450 ft 174 kts 356°
2026-05-08 02:26 40.77975 -111.99610 4260 ft 160 kts 355°
2026-05-08 02:27 40.78955 -111.99719 4235 ft 119 kts 355°
2026-05-08 02:27 40.79587 -111.99787 4230 ft 61 kts
2026-05-08 02:27 40.79843 -111.99643 4232 ft 29 kts 79°
2026-05-08 02:27 40.79779 -111.99583 4232 ft 13 kts 184°
2026-05-08 02:28 40.79715 -111.99590 4232 ft 15 kts 185°
2026-05-08 02:28 40.79606 -111.99570 4232 ft 17 kts 172°
2026-05-08 02:28 40.79494 -111.99472 4232 ft 15 kts 157°
2026-05-08 02:28 40.79384 -111.99451 4232 ft 17 kts 174°
2026-05-08 02:29 40.79262 -111.99434 4233 ft 18 kts 174°
2026-05-08 02:29 40.79130 -111.99420 4233 ft 20 kts 176°
2026-05-08 02:29 40.79038 -111.99413 4233 ft 20 kts 176°
2026-05-08 02:29 40.78892 -111.99395 4233 ft 21 kts 174°
2026-05-08 02:30 40.78754 -111.99375 4233 ft 18 kts 166°
2026-05-08 02:30 40.78725 -111.99251 4232 ft 16 kts 86°
2026-05-08 02:30 40.78731 -111.99120 4232 ft 9 kts 75°
2026-05-08 02:30 40.78780 -111.99100 4232 ft 9 kts 352°
2026-05-08 02:31 40.78811 -111.99104 4233 ft 0 kts 354°